• In Deutschland
  • Länderverzeichnis
  • Für 7 Tage
  • Wassertemperatur
  • Satellitenkarten
  • Wetterkarte
  • Widgets
  • user-avatar
    Anmelden

    Stündliche Wetter Nuoro

    Heute, 19 Oktober, Freitag

    Zeit Temperatur Niederschläge Wind Luftdruck Luftfeuchtigkeit
    00:00 +17°C° 0.2 mm 3 m/S 714 mmHg 91%
    01:00 +17°C° 0 mm 2 m/S 714 mmHg 94%
    02:00 +17°C° 0.2 mm 2 m/S 714 mmHg 94%
    03:00 +16°C° 0.2 mm 2 m/S 714 mmHg 94%
    04:00 +16°C° 0.2 mm 2 m/S 714 mmHg 95%
    05:00 +16°C° 0.2 mm 2 m/S 714 mmHg 95%
    06:00 +16°C° 0.2 mm 2 m/S 715 mmHg 95%
    07:00 +16°C° 0.2 mm 2 m/S 715 mmHg 95%
    08:00 +18°C° 0 mm 2 m/S 715 mmHg 87%
    09:00 +20°C° 0 mm 2 m/S 716 mmHg 78%
    10:00 +21°C° 0 mm 2 m/S 717 mmHg 70%
    11:00 +23°C° 0 mm 2 m/S 717 mmHg 66%
    12:00 +24°C° 0 mm 2 m/S 717 mmHg 61%
    13:00 +25°C° 0 mm 2 m/S 718 mmHg 57%
    14:00 +25°C° 0 mm 2 m/S 717 mmHg 59%
    15:00 +24°C° 0 mm 2 m/S 717 mmHg 62%
    16:00 +23°C° 0 mm 2 m/S 717 mmHg 65%
    17:00 +22°C° 0 mm 1 m/S 717 mmHg 73%
    18:00 +20°C° 0 mm 1 m/S 717 mmHg 81%
    19:00 +19°C° 0 mm 1 m/S 718 mmHg 89%
    20:00 +18°C° 0 mm 1 m/S 718 mmHg 90%
    21:00 +18°C° 0 mm 1 m/S 718 mmHg 91%
    22:00 +18°C° 0 mm 1 m/S 718 mmHg 92%
    23:00 +16°C° 0 mm 1 m/S 718 mmHg 92%

    Morgen, 20 Oktober, Samstag

    Zeit Temperatur Niederschläge Wind Luftdruck Luftfeuchtigkeit
    00:00 +16°C° 0 mm 1 m/S 719 mmHg 93%
    01:00 +16°C° 0 mm 1 m/S 719 mmHg 93%
    02:00 +16°C° 0 mm 1 m/S 719 mmHg 92%
    03:00 +16°C° 0 mm 1 m/S 719 mmHg 92%
    04:00 +16°C° 0 mm 1 m/S 719 mmHg 92%
    05:00 +16°C° 0 mm 1 m/S 719 mmHg 91%
    06:00 +15°C° 0 mm 1 m/S 719 mmHg 91%
    07:00 +15°C° 0 mm 1 m/S 719 mmHg 91%
    08:00 +19°C° 0 mm 1 m/S 720 mmHg 81%
    09:00 +19°C° 0 mm 0 m/S 720 mmHg 71%
    10:00 +22°C° 0 mm 0 m/S 721 mmHg 62%
    11:00 +24°C° 0 mm 1 m/S 721 mmHg 59%
    12:00 +25°C° 0 mm 1 m/S 721 mmHg 56%
    13:00 +26°C° 0 mm 1 m/S 721 mmHg 53%
    14:00 +25°C° 0.6 mm 1 m/S 721 mmHg 58%
    15:00 +24°C° 0.6 mm 2 m/S 721 mmHg 63%
    16:00 +23°C° 0.6 mm 2 m/S 720 mmHg 68%
    17:00 +21°C° 0.6 mm 1 m/S 720 mmHg 75%
    18:00 +20°C° 0.6 mm 1 m/S 720 mmHg 81%
    19:00 +16°C° 0.6 mm 0 m/S 720 mmHg 88%
    20:00 +16°C° 0.2 mm 0 m/S 720 mmHg 89%
    21:00 +16°C° 0.2 mm 0 m/S 720 mmHg 90%
    22:00 +15°C° 0.2 mm 0 m/S 720 mmHg 91%
    23:00 +16°C° 0.4 mm 1 m/S 720 mmHg 91%

    übermorgen, 21 Oktober, Sonntag

    Zeit Temperatur Niederschläge Wind Luftdruck Luftfeuchtigkeit
    00:00 +16°C° 0.4 mm 1 m/S 720 mmHg 91%
    01:00 +16°C° 0.4 mm 1 m/S 720 mmHg 91%
    02:00 +15°C° 0.1 mm 1 m/S 720 mmHg 91%
    03:00 +15°C° 0.1 mm 1 m/S 720 mmHg 90%
    04:00 +15°C° 0.1 mm 1 m/S 720 mmHg 90%
    05:00 +15°C° 0 mm 1 m/S 720 mmHg 89%
    06:00 +15°C° 0 mm 1 m/S 720 mmHg 89%
    07:00 +15°C° 0 mm 1 m/S 720 mmHg 88%
    08:00 +17°C° 0 mm 2 m/S 720 mmHg 78%
    09:00 +19°C° 0 mm 2 m/S 720 mmHg 69%
    10:00 +21°C° 0 mm 2 m/S 721 mmHg 60%
    11:00 +23°C° 0 mm 2 m/S 721 mmHg 56%
    12:00 +23°C° 0 mm 2 m/S 721 mmHg 52%
    13:00 +24°C° 0 mm 3 m/S 721 mmHg 47%
    14:00 +24°C° 0 mm 3 m/S 720 mmHg 49%
    15:00 +22°C° 0 mm 3 m/S 720 mmHg 51%
    16:00 +21°C° 0 mm 3 m/S 720 mmHg 52%
    17:00 +19°C° 0 mm 2 m/S 719 mmHg 59%
    18:00 +18°C° 0 mm 2 m/S 719 mmHg 65%
    19:00 +16°C° 0 mm 2 m/S 719 mmHg 72%
    20:00 +15°C° 0 mm 2 m/S 719 mmHg 70%
    21:00 +15°C° 0 mm 1 m/S 719 mmHg 69%
    22:00 +15°C° 0 mm 1 m/S 719 mmHg 67%
    23:00 +14°C° 0 mm 1 m/S 719 mmHg 65%

    22 Oktober, Montag

    Zeit Temperatur Niederschläge Wind Luftdruck Luftfeuchtigkeit
    00:00 +14°C° 0 mm 1 m/S 719 mmHg 62%
    01:00 +14°C° 0 mm 1 m/S 718 mmHg 59%
    02:00 +14°C° 0 mm 1 m/S 718 mmHg 57%
    03:00 +13°C° 0 mm 1 m/S 718 mmHg 54%
    04:00 +13°C° 0 mm 1 m/S 717 mmHg 51%
    05:00 +13°C° 0 mm 1 m/S 717 mmHg 51%
    06:00 +13°C° 0 mm 1 m/S 717 mmHg 51%
    07:00 +13°C° 0 mm 1 m/S 717 mmHg 50%
    08:00 +15°C° 0 mm 1 m/S 718 mmHg 48%
    09:00 +19°C° 0 mm 1 m/S 718 mmHg 46%
    10:00 +22°C° 0 mm 1 m/S 718 mmHg 44%
    11:00 +21°C° 0 mm 2 m/S 718 mmHg 43%
    12:00 +23°C° 0 mm 2 m/S 718 mmHg 43%
    13:00 +22°C° 0 mm 3 m/S 718 mmHg 42%
    14:00 +22°C° 0 mm 3 m/S 718 mmHg 47%
    15:00 +21°C° 0 mm 3 m/S 718 mmHg 51%
    16:00 +20°C° 0 mm 3 m/S 717 mmHg 56%
    17:00 +19°C° 0 mm 3 m/S 717 mmHg 65%
    18:00 +17°C° 0 mm 3 m/S 717 mmHg 74%
    19:00 +15°C° 0 mm 2 m/S 717 mmHg 83%
    20:00 +15°C° 0 mm 2 m/S 717 mmHg 84%
    21:00 +14°C° 0 mm 2 m/S 718 mmHg 85%
    22:00 +14°C° 0 mm 2 m/S 718 mmHg 86%
    23:00 +12°C° 0 mm 3 m/S 718 mmHg 84%

    23 Oktober, Dienstag

    Zeit Temperatur Niederschläge Wind Luftdruck Luftfeuchtigkeit
    00:00 +12°C° 0 mm 3 m/S 717 mmHg 81%
    01:00 +12°C° 0 mm 3 m/S 717 mmHg 78%
    02:00 +11°C° 0 mm 3 m/S 717 mmHg 77%
    03:00 +11°C° 0 mm 3 m/S 717 mmHg 76%
    04:00 +10°C° 0 mm 3 m/S 717 mmHg 75%
    05:00 +10°C° 0 mm 3 m/S 717 mmHg 76%
    06:00 +10°C° 0 mm 3 m/S 717 mmHg 77%
    07:00 +10°C° 0 mm 3 m/S 717 mmHg 78%
    08:00 +12°C° 0 mm 3 m/S 717 mmHg 69%
    09:00 +14°C° 0 mm 3 m/S 718 mmHg 60%
    10:00 +17°C° 0 mm 4 m/S 718 mmHg 51%
    11:00 +17°C° 0 mm 4 m/S 718 mmHg 47%
    12:00 +18°C° 0 mm 4 m/S 718 mmHg 44%
    13:00 +19°C° 0 mm 4 m/S 718 mmHg 40%
    14:00 +19°C° 0 mm 4 m/S 717 mmHg 42%
    15:00 +18°C° 0 mm 4 m/S 717 mmHg 43%
    16:00 +18°C° 0 mm 4 m/S 717 mmHg 45%
    17:00 +16°C° 0 mm 3 m/S 717 mmHg 51%
    18:00 +13°C° 0 mm 3 m/S 717 mmHg 57%
    19:00 +11°C° 0 mm 3 m/S 717 mmHg 64%
    20:00 +11°C° 0 mm 3 m/S 717 mmHg 65%
    21:00 +11°C° 0 mm 3 m/S 717 mmHg 65%
    22:00 +10°C° 0 mm 3 m/S 717 mmHg 66%
    23:00 +10°C° 0 mm 3 m/S 717 mmHg 69%

    24 Oktober, Mittwoch

    Zeit Temperatur Niederschläge Wind Luftdruck Luftfeuchtigkeit
    00:00 +10°C° 0 mm 3 m/S 717 mmHg 73%
    01:00 +10°C° 0 mm 3 m/S 717 mmHg 76%
    02:00 +10°C° 0 mm 3 m/S 717 mmHg 78%
    03:00 +10°C° 0 mm 3 m/S 717 mmHg 81%
    04:00 +10°C° 0 mm 4 m/S 717 mmHg 83%
    05:00 +10°C° 0 mm 4 m/S 717 mmHg 81%
    06:00 +10°C° 0 mm 4 m/S 717 mmHg 80%
    07:00 +10°C° 0 mm 4 m/S 718 mmHg 78%
    08:00 +12°C° 0 mm 4 m/S 718 mmHg 67%
    09:00 +14°C° 0 mm 5 m/S 718 mmHg 57%
    10:00 +15°C° 0 mm 5 m/S 719 mmHg 46%
    11:00 +16°C° 0 mm 5 m/S 719 mmHg 45%
    12:00 +16°C° 0 mm 5 m/S 719 mmHg 44%
    13:00 +17°C° 0 mm 5 m/S 719 mmHg 43%
    14:00 +17°C° 0 mm 5 m/S 719 mmHg 44%
    15:00 +16°C° 0 mm 5 m/S 718 mmHg 46%
    16:00 +16°C° 0 mm 5 m/S 718 mmHg 48%
    17:00 +14°C° 0 mm 4 m/S 718 mmHg 56%
    18:00 +12°C° 0 mm 3 m/S 718 mmHg 64%
    19:00 +12°C° 0 mm 2 m/S 718 mmHg 71%
    20:00 +10°C° 0 mm 2 m/S 718 mmHg 74%
    21:00 +10°C° 0 mm 2 m/S 718 mmHg 77%
    22:00 +10°C° 0 mm 2 m/S 718 mmHg 79%
    23:00 +10°C° 0 mm 2 m/S 718 mmHg 80%
    Mehr zeigen